If you wish to contribute or participate in the discussions about articles you are invited to join SKYbrary as a registered user

 Actions

Shimojishima Airport

From SKYbrary Wiki

RORS
Airport
ICAO: RORS – IATA: SHI
Summary
Name Shimojishima Airport
Region Asia and Pacific
Territory Japan JP.gif
Location Shimojishima, Okinawa Prefecture
Serving Miyakojima
Elevation 7.62 m
25 ft7.62 m
Coordinates 24° 49' 36.88" N, 125° 8' 56.86" E
Runways
Designator Length Width Surface ROPS
17/35 3000 m9,842.52 ft
61 m200.131 ft
ASP yes/yes


METAR
Observation RORS 232200Z 34010KT 9999 FEW026 23/18 Q1014
Station Shimoji-Shima Island
Date/Time 23 October 2019 22:00:00
Wind direction 340°
Wind speed 10 kts
Lowest cloud amount few clouds
Temperature 23°C
Dew point 18°C
Humidity 73%
QNH 1014 hPa
Weather condition n/a

Shimojishima Airport is located on the island of Shimojishima in Miyakojima, Okinawa Prefecture, Japan.

Climatology

Humid Sub-tropical climate (Köppen climate classification Cfa)

Maps

Terrain

Loading map...

Airport Layout

Loading map...


Accidents & Serious Incidents at or in vicinity of RORS

None on SKYbrary